Location: Newark
(32.8397°N, 6.6947°W)
Time: 12:57:18
(UTC+00:00)

Hubble Space Telescope - Visible Passes

Search period start: 15 November 2019 00:00
Search period end: 25 November 2019 00:00
Orbit: 536 x 540 km, 28.5° (Epoch: 14 November)

Date Brightness Start Highest point End Pass type
(mag) Time Alt. Az. Time Alt. Az. Time Alt. Az.
16 Nov 3.1 18:35:58 10° S 18:37:10 11° SSE 18:38:23 10° SE visible
17 Nov 3.0 18:24:17 10° S 18:26:29 14° SSE 18:28:34 10° SE visible
17 Nov 3.7 20:03:26 10° SW 20:03:55 13° SW 20:03:55 13° SW visible
18 Nov 2.8 18:13:03 10° SSW 18:15:47 17° SSE 18:18:32 10° ESE visible
18 Nov 3.3 19:52:42 10° WSW 19:53:59 18° SW 19:53:59 18° SW visible
19 Nov 2.6 18:02:00 10° SSW 18:05:07 21° SSE 18:08:14 10° ESE visible
19 Nov 2.8 19:42:01 10° WSW 19:44:01 25° SW 19:44:01 25° SW visible
20 Nov 2.4 17:51:05 10° SW 17:54:27 24° SSE 17:57:49 10° ESE visible
20 Nov 2.2 19:31:21 10° WSW 19:34:03 33° SW 19:34:03 33° SW visible
21 Nov 1.7 19:20:43 10° WSW 19:24:04 42° SSW 19:24:04 42° SSW visible
22 Nov 1.4 19:10:06 10° WSW 19:14:03 45° S 19:14:06 45° S visible
23 Nov 1.4 18:59:29 10° WSW 19:03:26 45° S 19:04:09 40° SSE visible
24 Nov 1.6 18:48:53 10° WSW 18:52:48 43° S 18:54:15 30° SE visible
